EW9135 Weather Reports


time (UTC)temp
C
wind
direction
speed
KPH
gust
KPH
rain 1hr
cm
rain 24hr
cm
rain mn
cm
humidity
%
barometer
mb
20260906111047 14 230 0.0 0.0 0.00 0.00 0.00 36 1020.4
20260906110543 14 231 0.0 0.0 0.00 0.00 0.00 35 1020.4
20260906110536 14 231 0.0 0.0 0.00 0.00 0.00 35 1020.4
20260906105530 14 236 0.0 0.0 0.00 0.00 0.00 35 1020.4
20260906105026 14 62 0.0 0.0 0.00 0.00 0.00 32 1020.4
20260906104520 14 234 0.0 0.0 0.00 0.00 0.00 34 1020.4
20260906104014 14 220 0.0 0.0 0.00 0.00 0.00 36 1020.4
20260906103510 14 222 0.0 0.0 0.00 0.00 0.00 35 1020.4
20260906103504 15 222 0.0 0.0 0.00 0.00 0.00 35 1020.1
20260906102457 15 222 0.0 0.0 0.00 0.00 0.00 35 1020.4
20260906101953 15 222 0.0 0.0 0.00 0.00 0.00 34 1020.4
20260906101446 15 234 0.0 0.0 0.00 0.00 0.00 34 1020.4
20260906100941 15 216 0.0 0.0 0.00 0.00 0.00 34 1020.1
20260906100438 15 232 0.0 0.0 0.00 0.00 0.00 32 1020.1
20260906100432 15 227 0.0 0.0 0.00 0.00 0.00 32 1020.1
20260906095425 15 217 0.0 0.0 0.00 0.00 0.00 32 1020.4
20260906094922 16 238 0.0 0.0 0.00 0.00 0.00 32 1020.1
20260906094414 16 228 0.0 0.0 0.00 0.00 0.00 32 1020.4
20260906094409 16 254 0.0 0.0 0.00 0.00 0.00 32 1020.4
20260906093403 16 223 0.0 0.0 0.00 0.00 0.00 31 1020.4
20260906092856 16 189 0.0 0.0 0.00 0.00 0.00 29 1020.4
20260906092354 16 189 0.0 0.0 0.00 0.00 0.00 29 1020.4
20260906091848 16 211 0.0 0.0 0.00 0.00 0.00 29 1020.7
20260906091841 16 210 0.0 0.0 0.00 0.00 0.00 30 1020.7
20260906090835 17 214 0.0 0.0 0.00 0.00 0.00 30 1020.7
20260906090331 17 218 0.0 0.0 0.00 0.00 0.00 29 1020.7
20260906085824 17 218 0.0 0.0 0.00 0.00 0.00 29 1020.7
20260906085318 17 220 0.0 0.0 0.00 0.00 0.00 26 1020.7
20260906084813 17 215 0.0 0.0 0.00 0.00 0.00 25 1020.7
20260906084308 17 242 0.0 0.0 0.00 0.00 0.00 25 1020.7
20260906083802 16 223 0.0 0.0 0.00 0.00 0.00 25 1020.7
20260906083258 16 226 0.0 0.0 0.00 0.00 0.00 25 1020.4
20260906082750 16 253 0.0 0.0 0.00 0.00 0.00 25 1020.4
20260906082247 16 205 0.0 0.0 0.00 0.00 0.00 26 1020.7
20260906081741 16 227 0.0 0.0 0.00 0.00 0.00 29 1020.7
20260906081235 15 223 0.0 0.0 0.00 0.00 0.00 30 1020.7
20260906081230 15 227 0.0 0.0 0.00 0.00 0.00 33 1020.7
20260906080225 16 226 0.0 0.0 0.00 0.00 0.00 33 1020.4
20260906075539 16 219 0.0 0.0 0.00 0.00 0.00 33 1020.7
20260906075032 16 227 0.0 0.0 0.00 0.00 0.00 31 1020.4
20260906074522 16 227 0.0 0.0 0.00 0.00 0.00 31 1020.7
20260906074014 16 227 0.0 0.0 0.00 0.00 0.00 31 1020.7
20260906073507 16 219 0.0 0.0 0.00 0.00 0.00 30 1020.7
20260906072956 17 219 0.0 0.0 0.00 0.00 0.00 31 1020.7
20260906072448 17 227 0.0 0.0 0.00 0.00 0.00 30 1020.7
20260906071940 17 208 0.0 0.0 0.00 0.00 0.00 29 1020.4
20260906071431 17 192 0.0 0.0 0.00 0.00 0.00 28 1020.7
20260906070922 17 192 0.0 0.0 0.00 0.00 0.00 27 1020.7
20260906070415 17 192 0.0 0.0 0.00 0.00 0.00 26 1020.4
20260906065905 17 215 0.0 0.0 0.00 0.00 0.00 26 1020.7
20260906065356 17 246 0.0 0.0 0.00 0.00 0.00 26 1020.4
20260906064849 17 224 0.0 0.0 0.00 0.00 0.00 28 1020.4
20260906064339 18 222 0.0 0.0 0.00 0.00 0.00 28 1020.4
20260906063831 18 218 0.0 0.0 0.00 0.00 0.00 27 1020.1
20260906063323 18 267 0.0 0.0 0.00 0.00 0.00 27 1020.4
20260906063315 18 330 0.0 0.0 0.00 0.00 0.00 28 1020.4
20260906062306 18 247 0.0 0.0 0.00 0.00 0.00 28 1020.1
20260906061756 18 292 0.0 0.0 0.00 0.00 0.00 28 1020.4
20260906061750 18 274 0.0 0.0 0.00 0.00 0.00 28 1020.4
20260906060739 18 233 0.0 0.0 0.00 0.00 0.00 28 1020.4
20260906060231 18 243 0.0 1.6 0.00 0.00 0.00 28 1020.4
20260906055722 18 263 0.0 1.6 0.00 0.00 0.00 28 1020.4
20260906055213 18 199 0.0 1.6 0.00 0.00 0.00 27 1020.7
20260906054705 18 217 0.0 1.6 0.00 0.00 0.00 27 1020.7
20260906054156 19 222 0.0 0.0 0.00 0.00 0.00 27 1020.4
20260906053647 19 258 0.0 0.0 0.00 0.00 0.00 28 1020.7
20260906053139 19 28 0.0 0.0 0.00 0.00 0.00 28 1020.7
20260906052630 19 350 0.0 1.6 0.00 0.00 0.00 27 1020.7
20260906052121 19 333 0.0 1.6 0.00 0.00 0.00 27 1020.7
20260906051614 19 290 0.0 0.0 0.00 0.00 0.00 27 1020.7
20260906051104 19 184 0.0 0.0 0.00 0.00 0.00 27 1021.1
20260906050555 19 220 0.0 0.0 0.00 0.00 0.00 27 1020.7
20260906050047 20 290 0.0 0.0 0.00 0.00 0.00 26 1020.7
20260906045538 20 287 0.0 0.0 0.00 0.00 0.00 26 1021.1
20260906045531 20 300 0.0 0.0 0.00 0.00 0.00 26 1020.7
20260906044521 20 229 0.0 0.0 0.00 0.00 0.00 26 1021.1
20260906044012 20 282 0.0 0.0 0.00 0.00 0.00 24 1020.7
20260906043504 20 204 0.0 0.0 0.00 0.00 0.00 24 1021.1
20260906042956 20 253 0.0 1.6 0.00 0.00 0.00 24 1021.1
20260906042446 20 324 0.0 1.6 0.00 0.00 0.00 24 1020.7
20260906042439 20 297 0.0 0.0 0.00 0.00 0.00 24 1020.7
20260906041430 20 257 0.0 1.6 0.00 0.00 0.00 24 1020.7
20260906041421 21 277 0.0 1.6 0.00 0.00 0.00 24 1020.7
20260906040412 21 43 0.0 1.6 0.00 0.00 0.00 24 1020.7
20260906035904 21 242 0.0 0.0 0.00 0.00 0.00 24 1020.7
20260906035354 21 223 0.0 0.0 0.00 0.00 0.00 24 1020.7
20260906034846 21 251 0.0 0.0 0.00 0.00 0.00 24 1020.4
20260906034338 21 48 0.0 0.0 0.00 0.00 0.00 22 1020.7
20260906033829 21 232 0.0 1.6 0.00 0.00 0.00 22 1020.7
20260906033320 22 331 0.0 1.6 0.00 0.00 0.00 21 1020.4
20260906032813 22 233 0.0 0.0 0.00 0.00 0.00 20 1020.4
20260906032804 22 236 0.0 0.0 0.00 0.00 0.00 18 1020.4
20260906031754 22 282 0.0 0.0 0.00 0.00 0.00 18 1020.4
20260906031246 22 304 0.0 0.0 0.00 0.00 0.00 18 1020.4
20260906030736 22 12 0.0 0.0 0.00 0.00 0.00 18 1020.1
20260906030228 22 251 0.0 0.0 0.00 0.00 0.00 18 1020.4
20260906025720 22 234 0.0 3.2 0.00 0.00 0.00 18 1020.1
20260906025712 22 219 0.0 3.2 0.00 0.00 0.00 18 1020.1
20260906024702 23 316 0.0 0.0 0.00 0.00 0.00 18 1020.1
20260906024155 23 283 0.0 0.0 0.00 0.00 0.00 15 1020.1
20260906023645 23 210 0.0 1.6 0.00 0.00 0.00 15 1020.1
20260906023136 23 260 0.0 1.6 0.00 0.00 0.00 15 1020.1
20260906022629 23 226 0.0 3.2 0.00 0.00 0.00 14 1020.1
20260906022119 23 283 0.0 3.2 0.00 0.00 0.00 14 1020.1
20260906021610 23 299 0.0 0.0 0.00 0.00 0.00 14 1019.7
20260906021104 24 200 0.0 0.0 0.00 0.00 0.00 13 1020.4
20260906021055 24 238 0.0 0.0 0.00 0.00 0.00 12 1020.4
20260906020045 24 316 0.0 0.0 0.00 0.00 0.00 12 1020.4
20260906015537 24 284 0.0 0.0 0.00 0.00 0.00 12 1020.1
20260906015027 24 221 0.0 0.0 0.00 0.00 0.00 12 1020.1
20260906014519 25 187 0.0 0.0 0.00 0.00 0.00 12 1020.1
20260906014011 25 244 0.0 0.0 0.00 0.00 0.00 12 1020.1
20260906013502 25 184 0.0 0.0 0.00 0.00 0.00 11 1020.1
20260906012954 25 265 0.0 0.0 0.00 0.00 0.00 11 1020.1
20260906012446 25 314 0.0 3.2 0.00 0.00 0.00 10 1020.4
20260906012436 25 297 0.0 3.2 0.00 0.00 0.00 10 1020.1
20260906011427 25 177 0.0 3.2 0.00 0.00 0.00 10 1020.1
20260906010919 25 230 0.0 3.2 0.00 0.00 0.00 10 1020.1
20260906010410 25 254 0.0 3.2 0.00 0.00 0.00 11 1020.1
20260906005901 26 326 0.0 3.2 0.00 0.00 0.00 11 1020.1
20260906005354 26 231 0.0 3.2 0.00 0.00 0.00 11 1019.7
20260906004844 26 60 0.0 3.2 0.00 0.00 0.00 10 1019.7
20260906004335 26 16 0.0 1.6 0.00 0.00 0.00 10 1020.1
20260906003828 26 344 0.0 1.6 0.00 0.00 0.00 10 1020.1
20260906003812 26 4 0.0 0.0 0.00 0.00 0.00 10 1019.7
20260906003417 26 268 0.0 0.0 0.00 0.00 0.00 10 1019.7
20260906002305 26 261 0.0 1.6 0.00 0.00 0.00 10 1019.7
20260906001753 26 239 0.0 1.6 0.00 0.00 0.00 10 1019.7
20260906001243 26 326 0.0 1.6 0.00 0.00 0.00 10 1020.1
20260906001237 26 280 0.0 1.6 0.00 0.00 0.00 10 1020.1
20260906000226 26 318 0.0 1.6 0.00 0.00 0.00 10 1020.1
20260905235718 26 15 0.0 1.6 0.00 0.00 0.00 10 1019.7
20260905235210 26 278 0.0 1.6 0.00 0.00 0.00 10 1019.7
20260905234701 26 295 0.0 0.0 0.00 0.00 0.00 10 1019.7
20260905234152 26 343 0.0 6.4 0.00 0.00 0.00 10 1020.1
20260905233644 26 102 0.0 6.4 0.00 0.00 0.00 10 1019.7
20260905233135 27 356 0.0 3.2 0.00 0.00 0.00 10 1020.1
20260905232626 27 7 0.0 3.2 0.00 0.00 0.00 10 1020.1
20260905232119 27 16 0.0 1.6 0.00 0.00 0.00 10 1019.7
20260905231609 27 303 0.0 1.6 0.00 0.00 0.00 10 1020.1
20260905231100 27 250 0.0 1.6 0.00 0.00 0.00 10 1020.1
20260905230552 27 69 0.0 3.2 0.00 0.00 0.00 10 1020.4
20260905230043 27 258 0.0 1.6 0.00 0.00 0.00 10 1020.1
20260905225535 27 231 0.0 4.8 0.00 0.00 0.00 10 1020.4
20260905225027 27 305 1.6 4.8 0.00 0.00 0.00 10 1020.1
20260905224518 28 166 0.0 1.6 0.00 0.00 0.00 10 1020.4
20260905224008 28 195 0.0 1.6 0.00 0.00 0.00 12 1020.1
20260905223953 28 251 0.0 3.2 0.00 0.00 0.00 12 1020.1
20260905223559 28 171 0.0 0.0 0.00 0.00 0.00 10 1020.4
20260905222443 28 355 1.6 3.2 0.00 0.00 0.00 12 1020.1
20260905221935 28 192 0.0 1.6 0.00 0.00 0.00 12 1020.4
20260905221425 29 228 0.0 3.2 0.00 0.00 0.00 12 1020.1
20260905220916 29 116 0.0 3.2 0.00 0.00 0.00 12 1020.4
20260905220409 28 238 0.0 1.6 0.00 0.00 0.00 11 1020.4
20260905215859 28 44 0.0 0.0 0.00 0.00 0.00 10 1020.4
20260905215350 28 77 0.0 1.6 0.00 0.00 0.00 11 1020.4
20260905215344 28 102 0.0 1.6 0.00 0.00 0.00 11 1020.4
20260905214333 27 98 0.0 0.0 0.00 0.00 0.00 12 1020.4
20260905213824 27 338 0.0 0.0 0.00 0.00 0.00 12 1020.4
20260905213318 27 267 0.0 0.0 0.00 0.00 0.00 10 1020.7
20260905212807 27 200 0.0 0.0 0.00 0.00 0.00 12 1020.4
20260905212259 27 120 0.0 0.0 0.00 0.00 0.00 10 1020.7
20260905211751 27 180 0.0 1.6 0.00 0.00 0.00 10 1020.4
20260905211241 27 203 0.0 1.6 0.00 0.00 0.00 10 1020.7
20260905210733 27 122 0.0 1.6 0.00 0.00 0.00 12 1020.7
20260905210726 27 173 0.0 1.6 0.00 0.00 0.00 12 1020.7
20260905205716 26 151 0.0 1.6 0.00 0.00 0.00 10 1020.7
20260905205207 27 168 0.0 0.0 0.00 0.00 0.00 10 1020.7
20260905204701 27 99 0.0 0.0 0.00 0.00 0.00 10 1020.7
20260905204149 27 171 0.0 0.0 0.00 0.00 0.00 10 1020.7
20260905203641 27 143 0.0 1.6 0.00 0.00 0.00 10 1021.1
20260905203134 27 105 0.0 1.6 0.00 0.00 0.00 10 1021.1
20260905202624 27 68 0.0 1.6 0.00 0.00 0.00 10 1020.7
20260905202116 27 199 0.0 0.0 0.00 0.00 0.00 10 1021.1
20260905201608 27 346 0.0 1.6 0.00 0.00 0.00 10 1021.1
20260905201058 27 257 0.0 1.6 0.00 0.00 0.00 10 1020.7
20260905200549 26 34 0.0 1.6 0.00 0.00 0.00 12 1021.1
20260905200042 26 317 0.0 3.2 0.00 0.00 0.00 10 1021.1
20260905200035 26 296 0.0 4.8 0.00 0.00 0.00 10 1021.1
20260905195023 26 203 0.0 4.8 0.00 0.00 0.00 10 1021.4
20260905194519 26 252 0.0 0.0 0.00 0.00 0.00 10 1021.4
20260905194510 25 253 0.0 0.0 0.00 0.00 0.00 10 1021.1
20260905193503 25 312 0.0 0.0 0.00 0.00 0.00 10 1021.4
20260905192958 25 294 0.0 3.2 0.00 0.00 0.00 12 1021.4
20260905192952 25 88 0.0 3.2 0.00 0.00 0.00 12 1021.4
20260905191946 25 189 0.0 0.0 0.00 0.00 0.00 12 1021.8
20260905191442 25 268 0.0 0.0 0.00 0.00 0.00 12 1021.8
20260905190935 25 280 0.0 0.0 0.00 0.00 0.00 11 1021.8
20260905190433 25 115 0.0 1.6 0.00 0.00 0.00 12 1021.8
20260905190428 25 52 0.0 1.6 0.00 0.00 0.00 12 1021.8
20260905185419 24 194 0.0 3.2 0.00 0.00 0.00 13 1021.8
20260905184913 24 97 0.0 3.2 0.00 0.00 0.00 16 1021.8
20260905184410 24 156 0.0 3.2 0.00 0.00 0.00 19 1021.8
20260905183902 23 228 0.0 1.6 0.00 0.00 0.00 19 1021.8
20260905183357 23 151 0.0 0.0 0.00 0.00 0.00 18 1021.8
20260905182853 23 258 0.0 0.0 0.00 0.00 0.00 18 1021.8
20260905182843 23 106 0.0 1.6 0.00 0.00 0.00 20 1022.1
20260905182448 23 244 0.0 1.6 0.00 0.00 0.00 20 1021.8
20260905181336 23 68 0.0 1.6 0.00 0.00 0.00 18 1021.8
20260905180828 23 279 0.0 1.6 0.00 0.00 0.00 21 1021.8
20260905180822 23 44 0.0 1.6 0.00 0.00 0.00 22 1021.8
20260905180425 23 98 0.0 1.6 0.00 0.00 0.00 22 1021.8
20260905175313 23 291 0.0 0.0 0.00 0.00 0.00 19 1021.8
20260905175308 23 75 0.0 0.0 0.00 0.00 0.00 21 1021.8
20260905174303 23 115 0.0 0.0 0.00 0.00 0.00 19 1021.8
20260905173756 23 87 0.0 0.0 0.00 0.00 0.00 18 1021.8
20260905173748 23 78 0.0 1.6 0.00 0.00 0.00 19 1021.8
20260905173353 23 323 0.0 1.6 0.00 0.00 0.00 18 1021.8
20260905172239 22 54 0.0 1.6 0.00 0.00 0.00 17 1021.8
20260905171737 22 63 0.0 0.0 0.00 0.00 0.00 16 1021.8
20260905171731 22 238 0.0 0.0 0.00 0.00 0.00 16 1021.4
20260905171224 22 181 0.0 0.0 0.00 0.00 0.00 18 1021.4
20260905170217 22 198 0.0 0.0 0.00 0.00 0.00 15 1021.4
20260905165714 22 299 0.0 0.0 0.00 0.00 0.00 18 1021.4
20260905165708 22 263 0.0 0.0 0.00 0.00 0.00 18 1021.4
20260905164701 21 241 0.0 0.0 0.00 0.00 0.00 19 1021.8
20260905164157 21 201 0.0 1.6 0.00 0.00 0.00 19 1021.8
20260905163650 21 161 0.0 1.6 0.00 0.00 0.00 19 1021.8
20260905163144 21 210 0.0 0.0 0.00 0.00 0.00 19 1021.8
20260905162640 21 192 0.0 0.0 0.00 0.00 0.00 19 1021.4
20260905162133 21 356 0.0 0.0 0.00 0.00 0.00 19 1021.8
20260905161627 21 192 0.0 0.0 0.00 0.00 0.00 20 1021.4
20260905161124 21 314 0.0 0.0 0.00 0.00 0.00 20 1021.4
20260905160618 21 225 0.0 0.0 0.00 0.00 0.00 20 1021.4
20260905160113 21 232 0.0 0.0 0.00 0.00 0.00 20 1021.4
20260905160108 20 230 0.0 0.0 0.00 0.00 0.00 20 1021.4
20260905155100 20 42 0.0 0.0 0.00 0.00 0.00 20 1021.4
20260905154554 19 214 0.0 0.0 0.00 0.00 0.00 21 1021.4
20260905154050 18 197 0.0 0.0 0.00 0.00 0.00 22 1021.8
20260905153543 17 16 0.0 0.0 0.00 0.00 0.00 24 1021.8
20260905153038 17 204 0.0 0.0 0.00 0.00 0.00 28 1021.8
20260905152535 17 238 0.0 0.0 0.00 0.00 0.00 32 1021.4
20260905152027 16 187 0.0 0.0 0.00 0.00 0.00 33 1021.8
20260905151522 16 255 0.0 0.0 0.00 0.00 0.00 34 1021.4
20260905151018 16 216 0.0 0.0 0.00 0.00 0.00 34 1021.4
20260905150510 15 131 0.0 0.0 0.00 0.00 0.00 33 1021.4
20260905150005 15 186 0.0 0.0 0.00 0.00 0.00 32 1021.4
20260905145500 14 195 0.0 0.0 0.00 0.00 0.00 30 1021.4
20260905145454 13 181 0.0 0.0 0.00 0.00 0.00 30 1021.8
20260905144448 12 200 0.0 0.0 0.00 0.00 0.00 35 1021.8
20260905143944 12 201 0.0 0.0 0.00 0.00 0.00 40 1021.4
20260905143438 12 225 0.0 0.0 0.00 0.00 0.00 40 1021.8
20260905142932 11 205 0.0 0.0 0.00 0.00 0.00 41 1021.4
20260905142427 11 214 0.0 0.0 0.00 0.00 0.00 40 1021.4
20260905141921 11 216 0.0 0.0 0.00 0.00 0.00 40 1021.4
20260905140910 11 244 0.0 0.0 0.00 0.00 0.00 41 1021.1
20260905140404 11 222 0.0 0.0 0.00 0.00 0.00 41 1021.4
20260905135859 11 222 0.0 0.0 0.00 0.00 0.00 41 1021.1
20260905135355 11 222 0.0 0.0 0.00 0.00 0.00 41 1021.1
20260905134847 11 222 0.0 0.0 0.00 0.00 0.00 41 1021.1
20260905134342 11 222 0.0 0.0 0.00 0.00 0.00 41 1021.1
20260905133838 12 222 0.0 0.0 0.00 0.00 0.00 41 1021.1
20260905133331 12 222 0.0 0.0 0.00 0.00 0.00 41 1020.7
20260905132826 12 221 0.0 0.0 0.00 0.00 0.00 41 1020.7
20260905132321 12 210 0.0 0.0 0.00 0.00 0.00 39 1020.7
20260905131814 12 210 0.0 0.0 0.00 0.00 0.00 39 1021.1
20260905131309 12 210 0.0 0.0 0.00 0.00 0.00 39 1020.7
20260905130805 12 187 0.0 0.0 0.00 0.00 0.00 40 1020.7
20260905130257 12 225 0.0 0.0 0.00 0.00 0.00 41 1020.7
20260905125752 12 225 0.0 0.0 0.00 0.00 0.00 40 1020.7
20260905125247 12 225 0.0 0.0 0.00 0.00 0.00 40 1020.7
20260905125241 12 225 0.0 0.0 0.00 0.00 0.00 40 1020.7
20260905124236 12 231 0.0 0.0 0.00 0.00 0.00 40 1020.4
20260905123731 12 231 0.0 0.0 0.00 0.00 0.00 40 1020.4
20260905123225 12 216 0.0 0.0 0.00 0.00 0.00 40 1020.4
20260905122719 12 217 0.0 0.0 0.00 0.00 0.00 40 1020.7
20260905122214 12 231 0.0 0.0 0.00 0.00 0.00 40 1020.7
20260905121707 12 220 0.0 0.0 0.00 0.00 0.00 40 1020.7
20260905121202 12 224 0.0 0.0 0.00 0.00 0.00 39 1020.7
20260905120658 13 241 0.0 0.0 0.00 0.00 0.00 39 1020.7
20260905120151 13 225 0.0 0.0 0.00 0.00 0.00 39 1020.7
20260905115645 13 194 0.0 0.0 0.00 0.00 0.00 39 1020.7
20260905115141 13 194 0.0 0.0 0.00 0.00 0.00 40 1020.7
20260905114635 13 206 0.0 0.0 0.00 0.00 0.00 39 1020.7
20260905114129 13 194 0.0 0.0 0.00 0.00 0.00 39 1020.7
20260905113625 13 179 0.0 0.0 0.00 0.00 0.00 39 1020.7
20260905113118 13 218 0.0 0.0 0.00 0.00 0.00 39 1020.7
20260905112618 13 250 0.0 0.0 0.00 0.00 0.00 39 1020.7
20260905112109 13 250 0.0 0.0 0.00 0.00 0.00 39 1020.4
20260905111602 13 231 0.0 0.0 0.00 0.00 0.00 38 1021.1
20260905111557 13 216 0.0 0.0 0.00 0.00 0.00 38 1020.7